Flag Weather past 2 weeks in Taunusstein, Hesse, Germany

Now
41 °F

Overcast.


Feels Like: 33 °F
Forecast: 35 / 39 °F
Wind: 15 mph from East

Location: Wiesbaden Airport

Current Time: Nov 28, 2014 at 1:24:37 PM

Latest Report: Nov 28, 2014 at 12:58 PM


Visibility: N/A

Pressure: 29.89 "Hg

Humidity: 87%

Dew point: 37 °F

Location of TaunussteinLocation

Historic Weather in Taunusstein — Graph

°F

Taunusstein temperature yesterday

Maximum temperature yesterday: 43 °F (at 1:58 PM)
Minimum temperature yesterday: 39 °F (at 5:58 AM)
Average temperature yesterday: 41 °F

Past Weeks' High & Low Weather Summary

 TemperatureHumidityPressure
High54 °F (Nov 14, 1:58 PM)100% (Nov 13, 11:58 AM)30.36 "Hg (Nov 13, 11:58 AM)
Low34 °F (Nov 25, 1:58 AM)71% (Nov 21, 1:58 PM)29.53 "Hg (Nov 16, 5:59 AM)
Average45 °F92%29.99 "Hg
* Reported Nov 13 11:58 AM — Nov 28 11:58 AM, Taunusstein, Weather by CustomWeather, © 2014

Note: Actual official high and low records may vary slightly from our data, if they occured in-between our weather recording intervals... More about our weather records

Advertising

Taunusstein weather history for previous 24 hours

 ConditionsComfort  
Time TempWeatherWind HumidityBarometerVisibility
11:58 AM
Nov 28
41 °FOvercast.13 mph87%29.90 "HgN/A
10:58 AM41 °FOvercast.9 mph87%29.90 "HgN/A
9:58 AM41 °FFog.8 mph87%29.90 "Hg6 mi
8:58 AM41 °FOvercast.9 mph87%29.88 "HgN/A
7:58 AM40 °FOvercast.8 mph90%29.88 "HgN/A
6:58 AM40 °FMostly cloudy.10 mph89%29.86 "HgN/A
5:58 AM39 °FClear.9 mph93%29.87 "HgN/A
4:58 AM39 °FClear.10 mph87%29.86 "HgN/A
3:58 AM39 °FClear.8 mph89%29.86 "HgN/A
2:58 AM39 °FPassing clouds.9 mph93%29.86 "HgN/A
1:58 AM40 °FPassing clouds.9 mph88%29.85 "HgN/A
12:58 AM40 °FClear.9 mph88%29.85 "HgN/A
11:58 PM
Nov 27
41 °FClear.10 mph87%29.85 "HgN/A
10:58 PM41 °FClear.7 mph87%29.85 "HgN/A
9:58 PM41 °FOvercast.8 mph87%29.85 "HgN/A
8:58 PM43 °FOvercast.9 mph81%29.85 "HgN/A
7:58 PM43 °FMostly cloudy.8 mph81%29.84 "HgN/A
6:58 PM43 °FPassing clouds.12 mph81%29.84 "HgN/A
5:58 PM42 °FPassing clouds.10 mph85%29.83 "HgN/A
4:58 PM42 °FMostly cloudy.10 mph83%29.83 "HgN/A
3:58 PM43 °FBroken clouds.9 mph83%29.83 "HgN/A
2:58 PM43 °FSunny.8 mph81%29.82 "HgN/A
1:58 PM43 °FPartly sunny.10 mph79%29.81 "HgN/A
Weather by CustomWeather, © 2014

See weather overviewHow to use our weather pages